Weather History for Paris Le Bourget, France

Change the Weather History Date:

Wednesday, January 2, 2013

  Actual Average Record
Temperature  
Mean Temperature 42 °F -  
Max Temperature 46 °F 43 °F 59 °F (2003)
Min Temperature 37 °F 34 °F 17 °F (1997)
Degree Days  
Heating Degree Days 24    
Moisture  
Dew Point 39 °F    
Average Humidity 88    
Maximum Humidity 100    
Minimum Humidity 81    
Precipitation  
Precipitation 0.00 in 0.07 in - ()
Sea Level Pressure  
Sea Level Pressure 30.30 in    
Wind  
Wind Speed 5 mph ()    
Max Wind Speed 10 mph    
Max Gust Speed -    
Visibility 6.2 miles    
Events Rain    
Averages and records for this station are not official NWS values.
T = Trace of Precipitation, MM = Missing Value Source: Averaged Metar Reports

Daily Weather History Graph

Daily Weather History Graph

Search for Another Location

Airport:

Trip Planner

Search our weather history database for the weather conditions in past years. The results will help you decide how hot, cold, wet, or windy it might be!

Date:

Astronomy

Jan. 02, 2013 Rise Set
Actual Time 8:44 AM CET 5:04 PM CET
Civil Twilight 8:07 AM CET 5:41 PM CET
Nautical Twilight 7:26 AM CET 6:22 PM CET
Astronomical Twilight 6:48 AM CET 7:00 PM CET
Moon 10:51 PM CET (1/2) 10:51 AM CET (1/2)
Length of Visible Light 9h 34m
Length of Day
8h 20m
Waning Gibbous, 77% of the Moon is Illuminated
Jan 2
Waning Gibbous
Jan 5
Last Quarter
Jan 11
New
Jan 19
First Quarter
Jan 27
Full

Hourly Weather History & Observations

Time (CET) Temp. Windchill Dew Point Humidity Pressure Visibility Wind Dir Wind Speed Gust Speed Precip Events Conditions
12:00 AM 37.4 °F 32.1 °F 35.6 °F 93% 30.06 in 6.2 mi WSW 6.9 mph - N/A   Unknown
12:30 AM 39.2 °F 33.6 °F 37.4 °F 93% 30.09 in 6.2 mi West 8.1 mph - N/A   Unknown
1:00 AM 37.4 °F 33.8 °F 35.6 °F 93% 30.09 in 6.2 mi West 4.6 mph - N/A   Unknown
1:30 AM 37.4 °F 32.8 °F 35.6 °F 93% 30.12 in 6.2 mi West 5.8 mph - N/A   Unknown
2:00 AM 39.2 °F 35.0 °F 37.4 °F 93% 30.12 in 6.2 mi West 5.8 mph - N/A   Overcast
2:30 AM 39.2 °F 34.2 °F 37.4 °F 93% 30.12 in 6.2 mi West 6.9 mph - N/A   Unknown
3:00 AM 37.4 °F 32.1 °F 35.6 °F 93% 30.15 in 6.2 mi West 6.9 mph - N/A   Unknown
3:30 AM 37.4 °F 32.8 °F 35.6 °F 93% 30.15 in 6.2 mi WSW 5.8 mph - N/A   Unknown
4:00 AM 37.4 °F - 35.6 °F 93% 30.15 in 6.2 mi Calm Calm - N/A   Unknown
4:30 AM 37.4 °F 33.8 °F 35.6 °F 93% 30.18 in 6.2 mi West 4.6 mph - N/A   Unknown
5:00 AM 37.4 °F 32.8 °F 35.6 °F 93% 30.18 in 6.2 mi West 5.8 mph - N/A   Unknown
5:30 AM 37.4 °F 34.9 °F 35.6 °F 93% 30.18 in 6.2 mi WSW 3.5 mph - N/A   Unknown
6:00 AM 37.4 °F 32.8 °F 35.6 °F 93% 30.18 in 6.2 mi West 5.8 mph - N/A   Unknown
6:30 AM 37.4 °F 33.8 °F 37.4 °F 100% 30.21 in 6.2 mi West 4.6 mph - N/A   Unknown
7:00 AM 37.4 °F 32.8 °F 35.6 °F 93% 30.21 in 6.2 mi West 5.8 mph - N/A   Unknown
7:30 AM 37.4 °F 34.9 °F 35.6 °F 93% 30.24 in 6.2 mi West 3.5 mph - N/A   Unknown
8:00 AM 37.4 °F - 35.6 °F 93% 30.24 in 6.2 mi Variable 1.2 mph - N/A   Partly Cloudy
8:30 AM 37.4 °F - 35.6 °F 93% 30.27 in 6.2 mi Variable 1.2 mph - N/A   Partly Cloudy
9:00 AM 37.4 °F - 35.6 °F 93% 30.27 in 6.2 mi Variable 2.3 mph - N/A   Overcast
9:30 AM 37.4 °F - 37.4 °F 100% 30.30 in 6.2 mi Variable 2.3 mph - N/A   Overcast
10:00 AM 39.2 °F 37.0 °F 37.4 °F 93% 30.30 in 6.2 mi WSW 3.5 mph - N/A   Partly Cloudy
10:30 AM 41.0 °F 39.0 °F 39.2 °F 93% 30.33 in 6.2 mi WSW 3.5 mph - N/A   Unknown
11:00 AM 42.8 °F 40.1 °F 39.2 °F 87% 30.33 in 6.2 mi WSW 4.6 mph - N/A   Unknown
11:30 AM 44.6 °F 40.7 °F 41.0 °F 87% 30.33 in 6.2 mi WSW 6.9 mph - N/A   Unknown
12:00 PM 44.6 °F 42.2 °F 39.2 °F 81% 30.33 in 6.2 mi West 4.6 mph - N/A   Unknown
12:30 PM 44.6 °F 42.2 °F 41.0 °F 87% 30.33 in 6.2 mi WSW 4.6 mph - N/A   Unknown
1:00 PM 44.6 °F 41.4 °F 41.0 °F 87% 30.33 in 6.2 mi WSW 5.8 mph - N/A   Unknown
1:30 PM 46.4 °F 43.5 °F 41.0 °F 81% 30.36 in 6.2 mi WSW 5.8 mph - N/A   Unknown
2:00 PM 46.4 °F 45.2 °F 41.0 °F 81% 30.36 in 6.2 mi West 3.5 mph - N/A   Unknown
2:30 PM 46.4 °F 42.9 °F 41.0 °F 81% 30.36 in 6.2 mi West 6.9 mph - N/A   Overcast
3:00 PM 46.4 °F 42.4 °F 41.0 °F 81% 30.36 in 6.2 mi West 8.1 mph - N/A   Overcast
3:30 PM 46.4 °F 44.3 °F 41.0 °F 81% 30.36 in 6.2 mi West 4.6 mph - N/A   Overcast
4:00 PM 46.4 °F 43.5 °F 41.0 °F 81% 30.36 in 6.2 mi WSW 5.8 mph - N/A   Overcast
4:30 PM 46.4 °F 43.5 °F 41.0 °F 81% 30.39 in 6.2 mi West 5.8 mph - N/A   Unknown
5:00 PM 46.4 °F 43.5 °F 41.0 °F 81% 30.39 in 6.2 mi West 5.8 mph - N/A   Unknown
5:30 PM 46.4 °F 43.5 °F 41.0 °F 81% 30.39 in 6.2 mi WSW 5.8 mph - N/A   Unknown
6:00 PM 46.4 °F 44.3 °F 41.0 °F 81% 30.39 in 6.2 mi WSW 4.6 mph - N/A   Unknown
6:30 PM 46.4 °F 45.2 °F 41.0 °F 81% 30.39 in 6.2 mi WSW 3.5 mph - N/A   Unknown
7:00 PM 46.4 °F 45.2 °F 41.0 °F 81% 30.42 in 6.2 mi SW 3.5 mph - N/A   Unknown
7:30 PM 46.4 °F 45.2 °F 41.0 °F 81% 30.42 in 6.2 mi SW 3.5 mph - N/A   Unknown
8:00 PM 46.4 °F 43.5 °F 41.0 °F 81% 30.42 in 6.2 mi SW 5.8 mph - N/A   Overcast
8:30 PM 46.4 °F 44.3 °F 41.0 °F 81% 30.42 in 6.2 mi SW 4.6 mph - N/A   Overcast
9:00 PM 46.4 °F 43.5 °F 41.0 °F 81% 30.42 in 6.2 mi SW 5.8 mph - N/A   Overcast
9:30 PM 46.4 °F 44.3 °F 41.0 °F 81% 30.42 in 6.2 mi SSW 4.6 mph - N/A   Mostly Cloudy
10:00 PM 46.4 °F 42.4 °F 41.0 °F 81% 30.42 in 6.2 mi SW 8.1 mph - N/A   Overcast
10:30 PM 46.4 °F 41.9 °F 41.0 °F 81% 30.45 in 6.2 mi SW 9.2 mph - N/A   Overcast
11:00 PM 46.4 °F 41.5 °F 42.8 °F 87% 30.45 in 6.2 mi SW 10.4 mph - N/A Rain Light Rain
11:30 PM 44.6 °F 39.7 °F 42.8 °F 93% 30.45 in 4.3 mi SSW 9.2 mph - N/A Rain Light Rain